sat.trackr.live / text

‹ back to catalog

UNKNOWN

NORAD 87051

UNKNOWN UNKNOWN UNKNOWN

§ Identity

Operator
Country
Launch date
Launch site
Launch vehicle
Mass (kg)
RCS (m²)

External: N2YO · Heavens-Above

§ Orbital elements

Epoch: 2026-05-23T22:10:01.087680Z

Period
106.94 min
Inclination
65.7286°
Eccentricity
0.0708020
Mean motion
13.46560984 rev/d
Perigee alt
556.5 km
Apogee alt
1,613.3 km
Semi-major
7,463.1 km
B*
2.2866e-4
RAAN
227.5193°
Arg perigee
66.8499°
Mean anomaly
300.5523°
Rev number
61,041

§ Raw data

UNKNOWN1 87051U          26143.92362370  .00000571  00000+0  22866-3 0  99982 87051  65.7286 227.5193 0708020  66.8499 300.5523 13.46560984610411

JSON: /api/v1/satellites/87051 · /tle

For live sub-satellite position, see the globe view (requires WebGL).

§ Visibility from observer

Set your observer location to see the next 7 days of passes ≥ 10°. The values pass through the URL so the page stays shareable.

No JS? Fill the form by hand. The geolocation button needs JavaScript.